Find Starlink 31763

NORAD ID: 59623 Int'l Des: 2024-080 Owner: SPXS Country: US Constellation: starlink operational
LEOCIRCULAR

現在のビュー

3D地球を読み込み中...

About Starlink 31763

Starlink 31763 (NORAD 59623) is a starlink constellation satellite (v2 mini) launched Apr 28, 2024 by SPXS of US. It operates in LEO, CIRCULAR orbit with a mass of 730.00 kg.

Starlink 31763について

説明を読み込み中...

次回通過

Passes for default location (London). Set your location on the main map for personalized predictions.

高度履歴

Loading altitude history...

軌道要素

1 59623U 24080Y 26199.56369152 .00000043 00000-0 11069-4 0 9991
2 59623 43.0044 19.1845 0001191 253.6942 106.3779 15.27582322124549
Epoch: Jul 18, 2026 • Age: 26 hours

現在のステータス

高度 493.6 km
遠地点 / 近地点 N/A
速度 7.62 km/s
衛星直下点 -37.96°S, 140.32°E
打ち上げ日 Apr 28, 2024
運用期間 2.2 years
タイプ internet

技術仕様

分類 Payload
質量 730.00 kg
乾燥質量 700.00 kg
総質量 730.00 kg
長さ 0.30 m
直径 4.10 m
スパン 29.00 m
形状 Box + pan
製造者 SPXS
バスタイプ Starlink V2M
フェーズステータス In Orbit
所有者/国 SPXS/US

Most Searched